Weather observations for the past three days for
Pullman / Moscow Regional Airport
Imperial (Metric)
Date Time (pdt) Wind (mph) Vis. (mi.) Weather Sky Cond. Temperature (ºF) Relative Humidity Wind Chill (°F) Heat Index (°F) Pressure Precipitation (in)
Air Dwpt 6 hour altimeter (in) sea level (mb) 1 hr 3 hr 6 hr
Max. Min.
17 23:53 E 8 10.00 Thunderstorm in Vicinity FEW070 SCT090 BKN120 73.9 48 40% 30 1013.8
17 22:53 W 6 10.00 Thunderstorm in Vicinity CLR 71.1 46 90 69.1 41% 30.02 1014.7
17 21:53 NE 3 10.00 Fair CLR 73.9 45 36% 30 1013.7
17 20:53 N 12 10.00 A Few Clouds FEW060 FEW095 FEW120 80.1 45 29% 79 29.98 1012.9
17 19:53 SE 5 9.00 Fair CLR 82 45 27% 80 30 1013.8
17 18:53 E 6 10.00 Fair CLR 87.1 44.1 22% 84 29.99 1013.6
17 17:53 E 6 10.00 Fair CLR 89.1 42.1 19% 85 29.99 1013.5
17 16:53 E 10 10.00 Fair CLR 89.1 41 90 81 19% 85 30.01 1014.1
17 15:53 SE 9 10.00 Fair CLR 87.1 41 20% 84 30.04 1015.0
17 14:53 E 8 10.00 Fair CLR 88 39.9 18% 84 30.04 1015.4
17 13:53 E 5 10.00 Fair CLR 87.1 39 18% 84 30.05 1015.8
17 12:53 SW 6 10.00 Fair CLR 86 41 20% 83 30.07 1016.3
17 11:53 SW 8 10.00 Fair CLR 84 42.1 23% 81 30.07 1016.6
17 10:53 Calm 10.00 Fair CLR 81 39 84 64.9 22% 79 30.06 1016.0
17 09:53 SW 5 10.00 Fair CLR 81 39.9 23% 79 30.07 1016.3
17 08:53 Calm 10.00 Fair CLR 78.1 46 32% 78 30.07 1016.2
17 07:53 E 8 10.00 Fair CLR 73.9 45 36% 30.04 1015.0
17 06:53 NE 5 10.00 Fair CLR 69.1 46.9 45% 30.03 1014.7
17 05:53 NE 5 10.00 Fair CLR 66 45 47% 30.02 1014.3
17 04:53 Calm 10.00 Fair CLR 66 43 69.1 59 43% 30.01 1013.9
17 03:53 Calm 10.00 Fair CLR 69.1 43 39% 30 1013.6
17 02:53 Calm 10.00 Fair CLR 62.1 44.1 52% 30 1013.8
17 01:53 Calm 10.00 Fair CLR 60.1 44.1 56% 30 1014.2
17 00:53 Calm 10.00 Fair CLR 64.9 43 45% 30 1013.9
16 23:53 Calm 10.00 Fair CLR 66 43 43% 30 1013.9
16 22:53 Calm 10.00 Fair CLR 69.1 44.1 91.9 68 41% 30 1014.0
16 21:53 Calm 10.00 Fair CLR 69.1 44.1 41% 30.01 1014.2
16 20:53 Calm 10.00 Fair CLR 75 46.9 37% 77 30 1014.0
16 19:53 N 6 10.00 Fair CLR 82.9 44.1 25% 81 30 1013.7
16 18:53 N 3 10.00 Fair CLR 89.1 44.1 21% 86 30 1013.6
16 17:53 N 3 9.00 Fair CLR 91 37 15% 87 30.01 1014.4
16 16:53 Vrbl 5 9.00 Fair CLR 91.9 39 91.9 82.9 16% 88 30.02 1014.9
16 15:53 E 6 9.00 Fair CLR 91 37.9 15% 87 30.03 1015.2
16 14:53 SE 9 10.00 Fair CLR 91 39.9 17% 87 30.05 1015.8
16 13:53 SE 6 10.00 Fair CLR 90 39.9 17% 86 30.06 1016.1
16 12:53 SE 5 10.00 Fair CLR 88 39.9 18% 84 30.07 1016.6
16 11:53 Vrbl 5 9.00 Fair CLR 87.1 39.9 19% 84 30.08 1017.1
16 10:53 S 5 8.00 Fair CLR 82.9 42.1 82.9 50 24% 81 30.09 1017.3
16 09:53 E 6 8.00 Fair CLR 80.1 41 25% 79 30.09 1017.3
16 08:53 E 7 6.00 Fair with Haze CLR 75 43 32% 77 30.08 1017.0
16 07:53 E 5 4.00 Fair with Haze CLR 70 39.9 34% 30.08 1016.8
16 06:53 NE 6 10.00 Fair CLR 66 36 33% 30.07 1016.3
16 05:53 Calm 10.00 Fair CLR 52 37 57% 30.06 1016.6
16 04:53 Calm 10.00 Fair CLR 53.1 36 59 51.1 52% 30.05 1016.1
16 03:53 Calm 10.00 Fair CLR 55.9 35.1 46% 30.03 1015.4
16 02:53 Calm 10.00 Fair CLR 55 35.1 47% 30.03 1015.2
16 01:53 Calm 10.00 Fair CLR 55 35.1 47% 30.02 1015.0
16 00:53 Calm 10.00 Fair CLR 57 35.1 44% 30.01 1014.7
15 23:53 Calm 10.00 Fair CLR 55.9 36 47% 30.01 1014.9
15 22:53 Calm 10.00 Fair CLR 59 35.1 88 57.9 41% 30.01 1014.9
15 21:53 Calm 10.00 Fair CLR 64 35.1 34% 30.01 1014.7
15 20:53 Calm 10.00 Fair CLR 70 37 30% 30.01 1014.4
15 19:53 NW 3 10.00 Fair CLR 80.1 30 16% 78 30 1013.9
15 18:53 W 7 10.00 Fair CLR 84.9 27 12% 82 30 1014.1
15 17:53 W 8 G 18 10.00 Fair CLR 87.1 27 11% 84 30 1014.4
15 16:53 Vrbl 6 10.00 Fair CLR 88 30.9 89.1 81 13% 84 30.01 1014.5
15 15:53 W 8 G 17 10.00 Fair CLR 88 30 12% 84 30.02 1014.9
15 14:53 W 12 G 22 10.00 Fair CLR 88 33.1 14% 84 30.04 1015.5
15 13:53 W 9 G 25 9.00 Fair CLR 87.1 36 16% 84 30.05 1015.7
15 12:53 NW 12 G 22 10.00 Fair CLR 86 36 17% 83 30.06 1016.3
15 11:53 SW 9 G 17 10.00 Fair CLR 82.9 35.1 18% 80 30.08 1016.7
15 10:53 W 8 10.00 Fair CLR 80.1 36 81 53.1 20% 79 30.08 1017.1
15 09:53 W 10 G 17 10.00 Fair CLR 80.1 37 21% 79 30.09 1017.0
15 08:53 W 10 10.00 Fair CLR 77 37.9 24% 77 30.09 1016.7
15 07:53 Calm 10.00 Fair CLR 72 42.1 34% 30.08 1016.6
15 06:53 Calm 10.00 Fair CLR 63 46 54% 30.08 1016.5
15 05:53 Calm 10.00 Fair CLR 54 42.1 64% 30.06 1016.3
15 04:53 Calm 10.00 Fair CLR 57.9 41 69.1 55 53% 30.06 1016.0
15 03:53 Calm 10.00 Fair CLR 61 42.1 50% 30.04 1015.2
15 02:53 Calm 10.00 Fair CLR 60.1 44.1 56% 30.02 1014.7
15 01:53 Calm 10.00 Fair CLR 64.9 44.1 47% 30.02 1014.4
15 00:53 Calm 10.00 Fair CLR 62.1 41 46% 30.01 1014.3
Date Time (pdt) Wind (mph) Vis. (mi.) Weather Sky Cond. Air Dwpt Max. Min. Relative Humidity Wind Chill (°F) Heat Index (°F) altimeter (in) sea level (mb) 1 hr 3 hr 6 hr
6 hour
Temperature (ºF) Pressure Precipitation (in)